Retour au catalogue

SKYSAT C5

ActifScienceSSO
NORAD 41772·PAYLOAD·🇺🇸 United States

Lancé Sep 16, 2016 depuis Guiana Space Centre

Loading…

Prochains Passages (prochaines 24 heures)

TLE

FraisSource: CelesTrak SupGP

Époque: Sep 14, 2026, 20:49 UTC

1 41772C 16058C   26257.86789352  .00003154  00000+0  95593-4 0  2575
2 41772  97.0395 294.4234 0001321  24.8782  57.1741 15.34197082    18

Suivez SKYSAT C5 en temps réel avec AllMySat

Download on the App Store